Hyannis, MA

8:14 AM EDT on October 23, 2017 (GMT -0400)
Barnstable Municipal-Boardman-Polando Field

Weather History for KHYA - November, 2011

Change the Weather History Date:

Sunday, November 27, 2011

  Actual Average Record
Temperature  
Mean Temperature 47 °F -  
Max Temperature 57 °F 50 °F 66 °F (1964)
Min Temperature 37 °F 32 °F 17 °F (1949)
Degree Days  
Heating Degree Days 18    
Moisture  
Dew Point 43 °F    
Average Humidity 93    
Maximum Humidity 100    
Minimum Humidity 74    
Precipitation  
Precipitation 0.00 in - - ()
Sea Level Pressure  
Sea Level Pressure 30.19 in    
Wind  
Wind Speed 2 mph (SSW)    
Max Wind Speed 14 mph    
Max Gust Speed 17 mph    
Visibility 6 miles    
Events Fog    
Averages and records for this station are not official NWS values.
T = Trace of Precipitation, MM = Missing Value Source: NWS Daily Summary

Daily Weather History Graph

Daily Weather History Graph

Search for Another Location

Airport or City:

Trip Planner

Search our weather history database for the weather conditions in past years. The results will help you decide how hot, cold, wet, or windy it might be!

Date:

Astronomy

Nov. 27, 2011 Rise Set
Actual Time 6:43 AM EST 4:13 PM EST
Civil Twilight 6:13 AM EST 4:43 PM EST
Nautical Twilight 5:38 AM EST 5:18 PM EST
Astronomical Twilight 5:05 AM EST 5:51 PM EST
Moon 9:06 AM EST (11/27) 6:47 PM EST (11/27)
Length of Visible Light 10h 30m
Length of Day
9h 29m
Waxing Crescent, 8% of the Moon is Illuminated
Nov 27
Waxing Crescent
Dec 2
First Quarter
Dec 10
Full
Dec 17
Last Quarter
Dec 24
New

Hourly Weather History & Observations

Time (EST) Temp. Dew Point Humidity Pressure Visibility Wind Dir Wind Speed Gust Speed Precip Events Conditions
12:05 AM 37.4 °F 35.6 °F 93% 30.21 in 10.0 mi Calm Calm - N/A   Scattered Clouds
12:14 AM 37.4 °F 35.6 °F 93% 30.21 in 9.0 mi Calm Calm - N/A   Mostly Cloudy
12:30 AM 37.4 °F 35.6 °F 93% 30.20 in 1.8 mi Calm Calm - N/A   Overcast
12:53 AM 39.2 °F 37.4 °F 93% 30.20 in 10.0 mi Calm Calm - N/A   Scattered Clouds
12:56 AM 37.9 °F 37.0 °F 97% 30.20 in 10.0 mi Calm Calm - N/A   Partly Cloudy
1:34 AM 37.4 °F 37.4 °F 100% 30.20 in 5.0 mi Calm Calm - N/A   Mostly Cloudy
1:39 AM 39.2 °F 37.4 °F 93% 30.20 in 1.8 mi Calm Calm - N/A   Mostly Cloudy
1:48 AM 39.2 °F 37.4 °F 93% 30.20 in 0.5 mi Calm Calm - N/A Fog Fog
1:56 AM 37.9 °F 37.0 °F 97% 30.20 in 0.2 mi Calm Calm - N/A Fog Fog
2:29 AM 37.4 °F 35.6 °F 93% 30.19 in 1.0 mi Calm Calm - N/A   Mist
2:56 AM 37.0 °F 37.0 °F 100% 30.20 in 1.0 mi Calm Calm - N/A   Mist
3:03 AM 37.4 °F 37.4 °F 100% 30.20 in 0.5 mi Calm Calm - N/A Fog Fog
3:10 AM 37.4 °F 37.4 °F 100% 30.20 in 0.2 mi Calm Calm - N/A Fog Fog
3:23 AM 37.4 °F 37.4 °F 100% 30.19 in 2.5 mi Calm Calm - N/A   Overcast
3:30 AM 37.4 °F 37.4 °F 100% 30.19 in 3.0 mi Calm Calm - N/A   Overcast
3:32 AM 37.4 °F 37.4 °F 100% 30.19 in 1.8 mi Calm Calm - N/A   Overcast
3:54 AM 37.4 °F 37.4 °F 100% 30.19 in 0.2 mi Calm Calm - N/A Fog Fog
3:56 AM 37.4 °F 37.4 °F 100% 30.19 in 0.2 mi Calm Calm - N/A Fog Fog
4:56 AM 37.9 °F 37.0 °F 97% 30.19 in 0.2 mi Calm Calm - N/A Fog Fog
5:56 AM 37.4 °F 37.4 °F 100% 30.20 in 0.2 mi Calm Calm - N/A Fog Fog
6:56 AM 39.2 °F 39.2 °F 100% 30.20 in 0.2 mi Calm Calm - N/A Fog Fog
7:56 AM 44.1 °F 44.1 °F 100% 30.23 in 0.5 mi Calm Calm - N/A Fog Fog
8:00 AM 44.6 °F 44.6 °F 100% 30.22 in 5.0 mi Calm Calm - N/A   Clear
8:56 AM 51.1 °F 50.0 °F 96% 30.22 in 10.0 mi SSE 5.8 mph - N/A   Clear
9:56 AM 54.0 °F 48.9 °F 83% 30.23 in 10.0 mi South 5.8 mph - N/A   Clear
10:56 AM 57.0 °F 48.9 °F 74% 30.21 in 10.0 mi South 8.1 mph - N/A   Clear
11:56 AM 57.0 °F 51.1 °F 81% 30.19 in 10.0 mi South 8.1 mph - N/A   Clear
12:56 PM 57.0 °F 52.0 °F 83% 30.18 in 10.0 mi SSW 10.4 mph - N/A   Scattered Clouds
1:56 PM 55.9 °F 51.1 °F 84% 30.19 in 10.0 mi SSW 9.2 mph - N/A   Clear
2:56 PM 55.0 °F 51.1 °F 86% 30.18 in 10.0 mi South 6.9 mph - N/A   Clear
3:56 PM 53.1 °F 51.1 °F 93% 30.17 in 10.0 mi South 5.8 mph - N/A   Clear
4:56 PM 53.1 °F 51.1 °F 93% 30.17 in 10.0 mi SSW 8.1 mph 17.3 mph N/A   Clear
5:56 PM 53.1 °F 51.1 °F 93% 30.17 in 10.0 mi South 8.1 mph - N/A   Clear
6:56 PM 53.1 °F 51.1 °F 93% 30.17 in 10.0 mi SSW 6.9 mph - N/A   Clear
7:56 PM 54.0 °F 51.1 °F 90% 30.17 in 10.0 mi SSW 10.4 mph - N/A   Clear
8:56 PM 55.0 °F 51.1 °F 86% 30.18 in 10.0 mi SW 12.7 mph - N/A   Clear
9:56 PM 55.0 °F 51.1 °F 86% 30.17 in 10.0 mi SSW 13.8 mph - N/A   Clear
10:56 PM 55.0 °F 51.1 °F 86% 30.16 in 10.0 mi SSW 13.8 mph - N/A   Clear
11:56 PM 55.4 °F 51.8 °F 88% 30.14 in 10.0 mi SW 13.8 mph - N/A   Clear